Wind_Speed
29 31 31 31 33 35 35 36 36 36 33 31 31 32 30 35 35 32 37 38 43 41
29 30 31 30 31 33 33 35 36 35 35 32 30 30 32 33 37 33 30 33 42 47
30 30 30 30 31 31 33 33 36 36 35 33 31 29 31 32 33 35 31 27 45 44
30 30 29 30 30 31 33 33 35 36 35 33 31 29 31 31 32 32 32 34 42 45
30 30 29 29 29 30 33 33 35 36 34 32 31 30 31 32 31 30 32 31 44 47
29 31 30 30 29 29 32 33 34 34 33 31 30 30 29 30 30 31 31 29 43 48
30 31 32 30 29 29 30 33 33 32 30 29 29 29 29 28 30 29 32 31 37 51
29 30 31 31 29 29 29 31 32 32 29 27 26 26 26 28 29 33 32 29 34 53
30 30 32 32 30 29 29 29 31 31 29 28 25 20 27 36 32 33 29 29 32 56
30 31 32 32 32 31 30 29 31 32 30 28 26 25 32 34 26 26 27 24 27 56
30 32 32 32 33 32 31 29 30 32 31 31 27 24 31 38 27 22 22 22 24 52
29 32 33 34 33 33 33 31 30 30 32 32 31 26 26 36 31 22 17 24 22 39
29 31 33 34 34 33 32 31 30 30 29 30 31 28 25 31 31 30 20 16 28 27
28 30 31 33 33 33 33 31 30 30 29 29 30 30 28 27 28 28 24 15 13 27
Wind_Direction
330 328 327 325 323 323 325 323 322 319 313 308 302 295 288 273 255 240 226 239 244 245
328 328 327 325 323 322 323 321 319 318 314 308 303 300 292 278 259 247 233 231 242 245
329 328 328 325 324 322 322 322 319 317 314 308 304 302 293 282 269 258 230 226 236 239
331 329 329 327 324 324 324 323 320 318 314 310 306 302 295 284 275 261 243 225 239 240
336 333 330 329 325 326 327 325 322 318 315 312 308 304 297 289 282 268 250 230 236 235
338 337 334 331 328 326 328 328 325 321 319 315 310 305 297 291 282 268 252 235 228 232
338 339 337 334 329 327 331 333 330 326 323 320 315 308 302 298 285 277 259 240 221 231
335 337 337 337 332 328 331 335 337 331 327 328 327 324 315 306 294 281 260 240 220 227
332 335 337 339 336 332 330 336 340 338 334 335 338 340 340 326 293 276 266 242 213 225
330 333 335 338 339 336 331 334 338 341 339 340 340 351 354 344 311 284 269 246 226 217
328 330 332 335 339 339 334 333 336 339 341 344 342 341 357 351 338 307 268 247 224 220
325 327 330 333 335 339 336 332 331 336 336 343 346 346 351 353 353 336 298 239 221 211
321 324 327 328 332 335 335 332 330 329 332 336 344 350 353 353 360 348 331 250 227 205
317 319 322 325 328 330 333 332 330 328 328 334 340 344 353 355 356 349 332 317 249 220
Height
1504 1498 1493 1488 1483 1477 1471 1466 1461 1456 1453 1448 1445 1440 1437 1436 1432 1436 1440 1444 1449 1453
1500 1495 1489 1485 1480 1473 1468 1462 1456 1452 1446 1442 1438 1435 1432 1427 1428 1427 1430 1436 1439 1443
1495 1491 1485 1480 1475 1469 1464 1458 1452 1446 1441 1436 1432 1428 1426 1421 1418 1420 1420 1425 1429 1435
1492 1486 1481 1476 1470 1464 1459 1453 1447 1440 1434 1429 1424 1420 1417 1415 1415 1410 1411 1415 1419 1425
1488 1483 1477 1472 1466 1460 1454 1448 1441 1435 1428 1422 1417 1412 1409 1405 1401 1399 1401 1406 1411 1415
1485 1479 1474 1468 1462 1456 1449 1443 1436 1429 1422 1416 1411 1406 1403 1399 1397 1396 1393 1397 1402 1405
1481 1476 1470 1463 1457 1451 1446 1438 1431 1425 1418 1412 1405 1400 1396 1391 1389 1381 1384 1386 1388 1393
1478 1473 1466 1460 1453 1447 1441 1435 1428 1420 1413 1407 1400 1394 1389 1386 1378 1378 1374 1376 1378 1382
1475 1469 1463 1456 1449 1442 1437 1431 1424 1417 1409 1401 1395 1389 1385 1381 1372 1370 1364 1364 1365 1373
1471 1466 1459 1453 1445 1439 1433 1427 1420 1414 1406 1397 1391 1384 1377 1369 1363 1356 1354 1353 1357 1364
1467 1462 1456 1449 1443 1436 1429 1424 1417 1410 1404 1395 1388 1381 1371 1362 1354 1347 1344 1348 1350 1354
1463 1457 1452 1446 1439 1433 1426 1420 1414 1409 1402 1394 1385 1377 1371 1364 1355 1345 1341 1342 1345 1349
1460 1454 1448 1442 1436 1430 1424 1417 1412 1405 1401 1393 1384 1376 1368 1360 1351 1346 1341 1340 1341 1340
1456 1450 1445 1439 1433 1427 1420 1414 1409 1403 1397 1392 1385 1376 1369 1362 1355 1352 1345 1338 1333 1333